Terminal Aerodrome Forecast
Issued by NWS

Home | Current Version | Previous Version | Text Only | Print | Product List | Glossary On
Versions: 1 2 3 4 5 6 7 8 9 10 11 12 13
000
FTUS45 KRIW 021720
TAFCPR
TAF
KCPR 021720Z 0218/0318 23018G28KT P6SM FEW120
     FM030130 20011KT P6SM SCT110
     FM030500 20008KT P6SM FEW100 WS010/23035KT
     FM031200 21011KT P6SM SCT200
     FM031600 21014KT P6SM BKN200=

USA.gov is the U.S. government's official web portal to all federal, state and local government web resources and services.